[[{"header":{"parameterUnit":"m.s-1","parameterCategory":2,"la1":30.2991,"la2":30.254,"lo1":-89.0895,"lo2":-89.0444,"dy":0.0017,"dx":0.0017,"nx":28,"ny":28,"refTime":"2025-07-15T21:00:00:Z","depth":"0","parameterNumber":2,"parameterNumberName":"U-component_of_CURRENTS"},"data":[0,0,0,0,0,0,0,0,0,0,0,0,0,0,0,0,0,0,0,0,0,0,0,0,0,0,0,0,0,0,0,0,0,0,0,0,0,0,0,0,0,0,0,0,0,0,0,0,0,0,0,0,0,0,0,0,0,0,0.3504,0.3505,0,0.3576,0.3577,0.3578,0.3619,0.3619,0.3619,0.3619,0.3709,0.3711,0.3714,0,0,0,0,0,0,0,0,0,0,0,0,0,0.3449,0.345,0.3504,0.3505,0.3505,0.3576,0.3577,0.3578,0.3619,0.3619,0.3619,0.3619,0.3708,0.3711,0.3714,0,0,0,0,0,0,0,0,0,0,0,0,0,0.3494,0.345,0.3504,0.3533,0.3536,0.3575,0.3577,0.3578,0.3619,0.3619,0.3619,0.3619,0.3707,0.3711,0.3714,0.3739,0,0,0.3726,0.3727,0,0,0,0,0,0,0,0,0.3491,0.3496,0.3528,0.3531,0.3534,0.3586,0.359,0.3632,0.3619,0.359,0.3619,0.3619,0.3668,0.3675,0.3692,0.3743,0.3747,0.3726,0.3728,0.373,0.3731,0,0,0,0,0,0,0,0.3488,0.3494,0.3535,0.3528,0.3532,0.3558,0.3564,0.3599,0.3631,0.3592,0.3595,0.3599,0.367,0.3688,0.3694,0.3748,0.3726,0.3729,0.3731,0.3733,0.3892,0.3894,0,0,0,0,0,0,0.3473,0.349,0.3532,0.3537,0.351,0.3559,0.3566,0.3572,0.363,0.3638,0.3599,0.3601,0.3682,0.369,0.3697,0.3746,0.373,0.3733,0.3735,0.389,0.3893,0.3895,0,0,0,0,0,0,0.3471,0.3476,0.3529,0.3513,0.3522,0.3559,0.3566,0.3573,0.3587,0.3635,0.3644,0.3606,0.3682,0.3692,0.3749,0.3749,0.3735,0.3738,0.3888,0.3891,0.3894,0.3833,0,0,0,0,0,0,0.3469,0.3475,0.3479,0.3512,0.3522,0.3545,0.3566,0.3574,0.3589,0.3592,0.3643,0.3652,0.3683,0.3744,0.3753,0.3754,0.3741,0.3885,0.3889,0.3893,0.3832,0.3834,0.3835,0,0,0,0,0,0.3467,0.3477,0.3479,0.3484,0.3525,0.3544,0.3552,0.358,0.3589,0.3593,0.3648,0.365,0.3775,0.3748,0.3758,0.376,0.3884,0.3888,0.3893,0.3832,0.3833,0.3835,0,0,0,0,0,0,0.3468,0.3483,0.3486,0.3502,0.3514,0.355,0.3558,0.3575,0.362,0.3625,0.3672,0.3686,0.374,0.3769,0.3739,0.3826,0.3831,0.3838,0.3781,0.3783,0.3784,0.3783,0.3744,0,0,0,0,0,0.3465,0.347,0.3486,0.3499,0.3497,0.3524,0.3537,0.3552,0.3592,0.361,0.365,0.3707,0.3769,0.3788,0.3845,0.388,0.3935,0.3895,0.3896,0.3896,0.3908,0.3991,0.3999,0.391,0.391,0.391,0,0,0.3472,0.3479,0.3484,0.3498,0.3508,0.3515,0.3532,0.3543,0.3563,0.3614,0.3657,0.3711,0.3785,0.3837,0.3863,0.3855,0.3955,0.3902,0.3901,0.3913,0.3997,0.4005,0.4012,0.3913,0.3913,0.3912,0,0,0.3481,0.3484,0.3485,0.3487,0.3492,0.3508,0.3506,0.3532,0.3553,0.36,0.3655,0.3713,0.3787,0.3843,0.3883,0.3926,0.3965,0.394,0.3928,0.4007,0.4014,0.4021,0.4106,0.4122,0.3929,0.3929,0.3929,0,0.3486,0.349,0.3491,0.3487,0.349,0.35,0.3501,0.3527,0.3576,0.3603,0.3607,0.3749,0.3795,0.388,0.39,0.3923,0.3982,0.3903,0.4004,0.4013,0.4021,0.4107,0.4124,0.3926,0.3927,0.3927,0.3927,0,0.3494,0.3491,0.3488,0.3485,0.349,0.349,0.3509,0.353,0.3553,0.3587,0.3665,0.3739,0.3821,0.3844,0.3885,0.3968,0.3996,0.3998,0.3987,0.4025,0.4115,0.4134,0.3923,0.3924,0.3925,0.3925,0,0,0.3511,0.3496,0.3493,0.3479,0.3483,0.3485,0.3515,0.3548,0.3571,0.3622,0.3674,0.3775,0.3804,0.3856,0.3906,0.397,0.4073,0.4003,0.4008,0.4063,0.4263,0.4216,0.4233,0.4086,0.4089,0.4092,0.4302,0,0.3511,0.3498,0.3498,0.3487,0.3474,0.3489,0.3513,0.3547,0.3585,0.3637,0.3714,0.3783,0.381,0.3847,0.3917,0.4047,0.4121,0.4017,0.4241,0.4248,0.418,0.4252,0.4102,0.4271,0.4321,0.4324,0.4327,0,0.3511,0.35,0.3485,0.3469,0.3465,0.3468,0.3496,0.352,0.3597,0.363,0.3704,0.3768,0.3888,0.3891,0.4114,0.4047,0.4156,0.4243,0.4253,0.4244,0.4236,0.4245,0.4304,0.4103,0.4357,0.4354,0.4352,0,0.35,0.3485,0.3469,0.3463,0.3458,0.3463,0.347,0.3521,0.3539,0.3631,0.3665,0.38,0.3873,0.403,0.4196,0.4173,0.4435,0.4424,0.4488,0.4486,0.4422,0.4409,0.4291,0.4583,0.4582,0.4582,0.4581,0,0.3488,0.3473,0.3458,0.3442,0.3429,0.3436,0.3438,0.3471,0.3522,0.3547,0.3653,0.3711,0.3911,0.4068,0.4221,0.4415,0.446,0.4514,0.4543,0.4398,0.4381,0.4254,0.4154,0.459,0.4588,0.4586,0.4585,0,0.3472,0.3463,0.3434,0.3419,0.3414,0.3402,0.3397,0.3401,0.3459,0.3503,0.3535,0.3681,0.3886,0.4086,0.4353,0.4435,0.4498,0.4683,0.4499,0.4501,0.4344,0.4249,0.4157,0.4058,0.4802,0.4802,0.4802,0,0.3459,0.3444,0.3407,0.3379,0.3366,0.335,0.3335,0.3368,0.337,0.3479,0.3498,0.3696,0.3822,0.4185,0.4392,0.466,0.4499,0.4635,0.4555,0.4326,0.4243,0.4095,0.4008,0.4466,0.4463,0.4461,0.4459,0,0.3429,0.3415,0.3384,0.333,0.3296,0.3268,0.3251,0.3244,0.3291,0.3342,0.3429,0.3545,0.3873,0.406,0.4373,0.452,0.4357,0.4598,0.4411,0.4012,0.3797,0.3717,0.434,0.444,0.4442,0.4443,0.4444,0.4445,0.3394,0.3362,0.3309,0.3256,0.3218,0.3171,0.3118,0.3126,0.3131,0.3165,0.3325,0.3435,0.3696,0.4123,0.4238,0.425,0.427,0.4163,0.409,0.3981,0.378,0.4355,0.4441,0.4442,0.4444,0.4445,0.4447,0,0.3324,0.3287,0.3235,0.3145,0.3073,0.3086,0.3038,0.2971,0.2944,0.3043,0.3122,0.3277,0.3479,0.368,0.3832,0.3733,0.3653,0.3618,0.3345,0.3309,0.3874,0.3746,0.3619,0.3619,0.3619,0.3619,0.3619,0.362,0.3274,0.3197,0.3164,0.3014,0.2955,0.2817,0.2769,0.2714,0.2732,0.2713,0.2743,0.2858,0.3057,0.3199,0.3154,0.3153,0.2905,0.2832,0.2814,0.3143,0.3186,0.3226,0.3079,0.2813,0.2812,0.2162,0.2156,0.2151]},{"header":{"parameterUnit":"m.s-1","parameterCategory":2,"la1":30.2991,"la2":30.254,"lo1":-89.0895,"lo2":-89.0444,"dy":0.0017,"dx":0.0017,"nx":28,"ny":28,"refTime":"2025-07-15T21:00:00:Z","depth":"0","parameterNumber":3,"parameterNumberName":"V-component_of_CURRENTS"},"data":[0,0,0,0,0,0,0,0,0,0,0,0,0,0,0,0,0,0,0,0,0,0,0,0,0,0,0,0,0,0,0,0,0,0,0,0,0,0,0,0,0,0,0,0,0,0,0,0,0,0,0,0,0,0,0,0,0,0,-0.0027,-0.0027,0,-0.0013,-0.0013,-0.0013,-0.0037,-0.0037,-0.0038,-0.0039,-0.0078,-0.0078,-0.0079,0,0,0,0,0,0,0,0,0,0,0,0,0,-0.0107,-0.0105,-0.0027,-0.0027,-0.0027,-0.0013,-0.0013,-0.0013,-0.0037,-0.0037,-0.0038,-0.0039,-0.0078,-0.0078,-0.0079,0,0,0,0,0,0,0,0,0,0,0,0,0,-0.0082,-0.0105,-0.0027,-0.0035,-0.0036,-0.0013,-0.0013,-0.0013,-0.0037,-0.0038,-0.0038,-0.0039,-0.0078,-0.0078,-0.0079,-0.0064,0,0,-0.0081,-0.0081,0,0,0,0,0,0,0,0,-0.0083,-0.0079,-0.0035,-0.0035,-0.0035,-0.0026,-0.0055,-0.0032,-0.0036,-0.0038,-0.0039,-0.004,-0.0063,-0.0065,-0.0063,-0.0066,-0.0068,-0.0081,-0.0082,-0.0082,-0.0082,0,0,0,0,0,0,0,-0.0085,-0.008,-0.0024,-0.0034,-0.0034,-0.005,-0.0048,-0.0051,-0.0048,-0.0038,-0.004,-0.0034,-0.0065,-0.0062,-0.0064,-0.0068,-0.0081,-0.0082,-0.0082,-0.0082,-0.0032,-0.003,0,0,0,0,0,0,-0.008,-0.0081,-0.0024,-0.0023,-0.006,-0.0048,-0.0045,-0.0029,-0.0047,-0.005,-0.0033,-0.0035,-0.006,-0.0063,-0.0065,-0.0018,-0.0082,-0.0083,-0.0083,-0.0033,-0.0031,-0.0029,0,0,0,0,0,0,-0.0081,-0.0074,-0.0025,-0.0051,-0.0046,-0.0045,-0.0028,-0.0029,-0.0027,-0.0043,-0.0047,-0.0031,-0.0061,-0.0065,-0.0049,-0.0021,-0.0083,-0.0083,-0.0035,-0.0033,-0.003,0.0057,0,0,0,0,0,0,-0.0083,-0.0075,-0.0063,-0.005,-0.0044,0.0002,-0.0026,-0.0028,-0.0022,-0.0024,-0.0042,-0.0046,-0.0062,-0.0048,-0.005,-0.0023,-0.0084,-0.0038,-0.0034,-0.0031,0.0052,0.0062,0.0071,0,0,0,0,0,-0.0086,-0.0056,-0.0062,-0.0055,-0.0027,0.0004,0.0006,0.0001,-0.002,-0.0005,-0.0014,-0.0046,-0.0029,-0.0047,-0.005,-0.0022,-0.0039,-0.0035,-0.0031,0.0047,0.006,0.0071,0,0,0,0,0,0,-0.0077,-0.0056,-0.0062,-0.0026,-0.0009,0.0001,0.0013,0.0005,0.001,0.0002,-0.0022,-0.0025,-0.0,-0.0021,-0.004,0.0003,-0.004,-0.0036,0.0021,0.0033,0.0042,0.0047,-0.0085,0,0,0,0,0,-0.0071,-0.0049,-0.003,-0.0002,0.0006,0.0007,0.0016,0.0014,0.002,0.002,0.0012,0.0005,0.0015,0.0015,0.0018,0.004,0.0015,0.0056,0.0066,0.0074,0.0077,0.0071,0.008,-0.0016,-0.0016,-0.0016,0,0,-0.0058,-0.0045,-0.0032,0.0,0.0007,0.0038,0.001,0.0031,0.0058,0.0016,0.0046,0.0038,0.003,0.0062,0.007,0.0046,0.0091,0.0079,0.0086,0.0085,0.0076,0.0085,0.0093,-0.0014,-0.0014,-0.0015,0,0,-0.0022,-0.0012,0.0015,0.0034,0.0052,0.006,0.0068,0.0083,0.0089,0.0119,0.0101,0.0113,0.012,0.0129,0.0131,0.0194,0.0145,0.0192,0.0241,0.0236,0.0243,0.0249,0.0238,0.0243,0.0194,0.0194,0.0194,0,-0.0012,0.0029,0.003,0.0062,0.0084,0.0073,0.0112,0.0127,0.0146,0.0161,0.0139,0.0167,0.0156,0.02,0.0224,0.0216,0.0198,0.0198,0.0247,0.0253,0.0258,0.0244,0.0248,0.0199,0.0198,0.0198,0.0197,0,0.0046,0.0076,0.0097,0.0133,0.0157,0.0191,0.0211,0.0234,0.0232,0.0244,0.0281,0.0272,0.0284,0.029,0.0276,0.0315,0.0288,0.0262,0.0216,0.0273,0.0255,0.0258,0.0205,0.0204,0.0202,0.0201,0,0,0.0077,0.0126,0.0133,0.0157,0.0197,0.0225,0.0275,0.032,0.0352,0.0362,0.0403,0.0422,0.04,0.0402,0.0385,0.0384,0.0406,0.0341,0.0338,0.0326,0.0389,0.0364,0.0364,0.0385,0.0385,0.0386,0.0366,0,0.0121,0.0185,0.0203,0.027,0.0306,0.0322,0.0372,0.0408,0.0428,0.0466,0.046,0.0488,0.0449,0.0453,0.0449,0.0421,0.0415,0.0414,0.0339,0.0337,0.0304,0.0367,0.0369,0.035,0.0368,0.0368,0.0368,0,0.0172,0.0208,0.0275,0.0336,0.0354,0.0393,0.046,0.0503,0.0551,0.0564,0.0581,0.0572,0.0588,0.0534,0.0508,0.0506,0.0455,0.0424,0.0421,0.0367,0.0317,0.0295,0.0353,0.0219,0.0371,0.0371,0.0371,0,0.0187,0.026,0.0311,0.0335,0.0404,0.0438,0.0474,0.0531,0.0574,0.062,0.0652,0.0653,0.066,0.0606,0.0544,0.0524,0.0503,0.0462,0.039,0.0387,0.0359,0.0352,0.0274,0.0433,0.0433,0.0434,0.0434,0,0.0227,0.0269,0.0321,0.0351,0.0419,0.0457,0.0528,0.0566,0.0627,0.0691,0.0694,0.0741,0.0677,0.066,0.0579,0.0503,0.0525,0.0413,0.0388,0.0391,0.0387,0.0243,0.0171,0.0433,0.0433,0.0433,0.0433,0,0.0233,0.0269,0.033,0.04,0.0425,0.047,0.0553,0.0606,0.0661,0.0744,0.0763,0.081,0.0799,0.0728,0.0652,0.0555,0.0414,0.0437,0.0444,0.042,0.0217,0.0152,0.0072,0.0046,0.0355,0.0355,0.0354,0,0.0243,0.0275,0.035,0.0387,0.0419,0.0487,0.0539,0.0609,0.0672,0.0793,0.0839,0.087,0.0919,0.0808,0.0651,0.0516,0.0408,0.0397,0.0356,0.0219,0.0127,0.0097,0.0079,0.0355,0.0354,0.0354,0.0354,0,0.0261,0.028,0.0322,0.0397,0.0455,0.0532,0.0613,0.0672,0.0771,0.0865,0.0983,0.104,0.0954,0.0862,0.0675,0.0549,0.0317,0.0382,0.0243,0.013,0.0089,0.0048,0.0345,0.035,0.0351,0.0351,0.0351,0.0351,0.0262,0.0288,0.0341,0.0414,0.0487,0.0589,0.0663,0.0771,0.0902,0.1085,0.1098,0.1239,0.1056,0.0826,0.0626,0.0255,0.0283,0.0144,0.008,0.0064,0.003,0.0317,0.0288,0.0288,0.0288,0.0288,0.0288,0,0.0268,0.0301,0.0363,0.046,0.0546,0.0587,0.0725,0.0826,0.1001,0.1187,0.1317,0.133,0.1082,0.0781,0.0293,0.0017,-0.0065,-0.0139,-0.0191,-0.019,0.0064,0.0052,-0.0034,-0.0033,-0.0033,-0.0033,-0.0033,-0.0033,0.0276,0.0319,0.0355,0.0496,0.0573,0.0705,0.0792,0.0961,0.1121,0.1367,0.1497,0.1569,0.1331,0.0454,-0.0143,-0.0285,-0.0441,-0.0487,-0.0549,-0.0413,-0.0391,-0.0371,-0.04,-0.0579,-0.0579,-0.0752,-0.0754,-0.0756]}],[{"header":{"parameterUnit":"m.s-1","parameterCategory":2,"la1":30.2991,"la2":30.254,"lo1":-89.0895,"lo2":-89.0444,"dy":0.0017,"dx":0.0017,"nx":28,"ny":28,"refTime":"2025-07-15T21:00:00:Z","depth":"2","parameterNumber":2,"parameterNumberName":"U-component_of_CURRENTS"},"data":[0,0,0,0,0,0,0,0,0,0,0,0,0,0,0,0,0,0,0,0,0,0,0,0,0,0,0,0,0,0,0,0,0,0,0,0,0,0,0,0,0,0,0,0,0,0,0,0,0,0,0,0,0,0,0,0,0,0,0.1223,0.1223,0,0.1219,0.1219,0.1219,0.1258,0.1259,0.126,0.1261,0.1337,0.1338,0.1339,0,0,0,0,0,0,0,0,0,0,0,0,0,0.1209,0.1209,0.1223,0.1223,0.1223,0.1219,0.1219,0.1219,0.1257,0.1259,0.126,0.1261,0.1337,0.1338,0.1339,0,0,0,0,0,0,0,0,0,0,0,0,0,0.1211,0.1209,0.1223,0.1242,0.1244,0.1219,0.1219,0.1219,0.1257,0.1259,0.1261,0.1262,0.1336,0.1338,0.1339,0.1316,0,0,0.1344,0.1345,0,0,0,0,0,0,0,0,0.1211,0.1211,0.1239,0.1241,0.1242,0.1241,0.1242,0.1255,0.1257,0.1252,0.1261,0.1263,0.1311,0.1315,0.1309,0.1319,0.1322,0.1344,0.1345,0.1346,0.1346,0,0,0,0,0,0,0,0.1211,0.1211,0.1221,0.1239,0.1241,0.1232,0.1234,0.1244,0.1274,0.1252,0.1255,0.1255,0.1313,0.1307,0.1311,0.1324,0.1344,0.1345,0.1346,0.1347,0.1473,0.1475,0,0,0,0,0,0,0.1213,0.1211,0.1221,0.1221,0.1231,0.1231,0.1234,0.1239,0.1272,0.1278,0.1253,0.1256,0.1304,0.1309,0.1314,0.1441,0.1346,0.1347,0.1348,0.1471,0.1473,0.1476,0,0,0,0,0,0,0.1212,0.1214,0.1221,0.1216,0.1216,0.123,0.1235,0.1238,0.1277,0.1272,0.128,0.1294,0.1305,0.1312,0.1365,0.1439,0.1348,0.1349,0.1468,0.1471,0.1475,0.1597,0,0,0,0,0,0,0.1212,0.1214,0.1236,0.1216,0.1217,0.1276,0.1234,0.1237,0.1271,0.1277,0.1308,0.1314,0.1307,0.1363,0.1366,0.1439,0.135,0.1465,0.1469,0.1474,0.159,0.1604,0.1617,0,0,0,0,0,0.1212,0.1237,0.1237,0.124,0.1242,0.1279,0.1281,0.1293,0.1272,0.1326,0.1321,0.1316,0.1395,0.1365,0.1369,0.1444,0.1462,0.1468,0.1473,0.1584,0.1601,0.1616,0,0,0,0,0,0,0.1257,0.1243,0.1243,0.1268,0.1303,0.1288,0.1358,0.1315,0.1347,0.1382,0.1334,0.1342,0.1422,0.1407,0.1375,0.1494,0.1433,0.1439,0.1516,0.1532,0.1545,0.1561,0.1352,0,0,0,0,0,0.127,0.1288,0.1288,0.1323,0.1373,0.1365,0.1383,0.139,0.14,0.1418,0.1404,0.1416,0.1437,0.1465,0.1487,0.1541,0.1551,0.1595,0.1609,0.162,0.1636,0.1701,0.1722,0.1494,0.1494,0.1494,0,0,0.1297,0.1294,0.1306,0.1334,0.139,0.143,0.1388,0.1472,0.1464,0.1422,0.145,0.1469,0.1461,0.1532,0.1567,0.1537,0.1695,0.1627,0.1637,0.1646,0.1709,0.1731,0.1751,0.1498,0.1497,0.1497,0,0,0.1347,0.1391,0.1424,0.1487,0.1564,0.154,0.1569,0.1584,0.1589,0.1602,0.1577,0.1634,0.1637,0.1659,0.166,0.1757,0.1763,0.1779,0.1865,0.1929,0.1948,0.1965,0.2026,0.2047,0.1787,0.1787,0.1788,0,0.1387,0.1426,0.1449,0.153,0.1588,0.1589,0.1658,0.1645,0.1643,0.1649,0.1646,0.1685,0.1694,0.1756,0.1802,0.1792,0.1828,0.1803,0.1948,0.1965,0.198,0.2037,0.206,0.1794,0.1793,0.1793,0.1792,0,0.1478,0.1532,0.1606,0.1667,0.171,0.1822,0.1808,0.1822,0.18,0.177,0.1846,0.1861,0.1889,0.191,0.1886,0.2008,0.2,0.1957,0.1908,0.2011,0.2064,0.2085,0.1803,0.1801,0.1799,0.1797,0,0,0.1567,0.1632,0.169,0.1696,0.1826,0.1833,0.1878,0.1887,0.1883,0.192,0.1945,0.201,0.2047,0.2054,0.2061,0.2122,0.2271,0.2106,0.2106,0.2168,0.2434,0.2241,0.2245,0.2266,0.227,0.2273,0.2434,0,0.1671,0.1756,0.1784,0.1859,0.1909,0.1949,0.1954,0.1959,0.1964,0.1983,0.2044,0.2096,0.2088,0.2149,0.2213,0.2253,0.233,0.2232,0.2322,0.2325,0.2142,0.2263,0.208,0.2191,0.2454,0.2458,0.246,0,0.1809,0.1818,0.1906,0.1887,0.1931,0.1957,0.199,0.201,0.2059,0.2077,0.2176,0.2208,0.2337,0.2305,0.2459,0.2405,0.2449,0.2469,0.2474,0.2263,0.2169,0.2127,0.2219,0.2495,0.2492,0.2489,0.2487,0,0.1823,0.1913,0.1939,0.1988,0.1977,0.2009,0.2029,0.2074,0.2087,0.2197,0.2229,0.236,0.244,0.2534,0.2596,0.2557,0.2741,0.2674,0.2543,0.253,0.2372,0.2335,0.2794,0.2794,0.2794,0.2793,0.2793,0,0.1892,0.1924,0.1948,0.1967,0.1978,0.2031,0.2077,0.209,0.2187,0.2219,0.2322,0.2373,0.2505,0.2603,0.266,0.2673,0.2804,0.2588,0.2566,0.2406,0.2373,0.2616,0.2593,0.2799,0.2798,0.2797,0.2796,0,0.1858,0.1908,0.191,0.1945,0.197,0.1994,0.2082,0.2096,0.221,0.2274,0.233,0.243,0.2563,0.2661,0.2807,0.2717,0.2772,0.2744,0.2541,0.2487,0.2507,0.2489,0.2612,0.2607,0.2603,0.2599,0.2596,0,0.1801,0.1822,0.1895,0.1903,0.1924,0.1988,0.2025,0.2112,0.2141,0.2283,0.2295,0.2459,0.253,0.2657,0.2575,0.2625,0.2746,0.2427,0.2276,0.2527,0.2494,0.2482,0.2471,0.2153,0.2146,0.2141,0.2137,0,0.1687,0.1777,0.1799,0.1845,0.1876,0.188,0.196,0.1979,0.2093,0.2157,0.2277,0.2385,0.2436,0.2372,0.2357,0.2344,0.2393,0.2305,0.2693,0.2172,0.2091,0.2057,0.2063,0.2089,0.2094,0.2098,0.21,0.2102,0.1649,0.1684,0.1774,0.1809,0.1815,0.1809,0.183,0.1902,0.197,0.2074,0.2184,0.2244,0.2113,0.1976,0.1962,0.194,0.204,0.196,0.198,0.2005,0.1868,0.1776,0.1694,0.1696,0.1698,0.17,0.1702,0,0.1585,0.1688,0.1718,0.1776,0.1751,0.1783,0.1791,0.18,0.189,0.1942,0.2062,0.1748,0.1687,0.1698,0.1547,0.1452,0.1481,0.1457,0.1516,0.156,0.1601,0.1446,0.116,0.1159,0.1158,0.1157,0,0,0.1585,0.1613,0.168,0.17,0.1761,0.1715,0.1722,0.1736,0.1724,0.1709,0.1684,0.1656,0.1593,0.1294,0.1237,0.1248,0.1423,0.1212,0.1639,0.1755,0.1796,0.1865,0.1672,0,0,0,0,0]},{"header":{"parameterUnit":"m.s-1","parameterCategory":2,"la1":30.2991,"la2":30.254,"lo1":-89.0895,"lo2":-89.0444,"dy":0.0017,"dx":0.0017,"nx":28,"ny":28,"refTime":"2025-07-15T21:00:00:Z","depth":"2","parameterNumber":3,"parameterNumberName":"V-component_of_CURRENTS"},"data":[0,0,0,0,0,0,0,0,0,0,0,0,0,0,0,0,0,0,0,0,0,0,0,0,0,0,0,0,0,0,0,0,0,0,0,0,0,0,0,0,0,0,0,0,0,0,0,0,0,0,0,0,0,0,0,0,0,0,0.034,0.0341,0,0.0369,0.0369,0.0369,0.036,0.0359,0.0358,0.0358,0.0212,0.0209,0.0205,0,0,0,0,0,0,0,0,0,0,0,0,0,0.0284,0.0285,0.034,0.0341,0.0341,0.0368,0.0369,0.0369,0.036,0.0359,0.0358,0.0357,0.0213,0.0209,0.0205,0,0,0,0,0,0,0,0,0,0,0,0,0,0.031,0.0286,0.034,0.0339,0.034,0.0368,0.0369,0.0369,0.036,0.0359,0.0358,0.0357,0.0214,0.0209,0.0205,0.0193,0,0,0.0189,0.0187,0,0,0,0,0,0,0,0,0.0309,0.0312,0.0339,0.034,0.034,0.0359,0.0296,0.0302,0.036,0.0352,0.0358,0.0357,0.0245,0.0238,0.0248,0.0187,0.018,0.0189,0.0186,0.0184,0.0183,0,0,0,0,0,0,0,0.0307,0.0311,0.0352,0.034,0.034,0.034,0.0342,0.0298,0.0301,0.0353,0.0352,0.0355,0.0244,0.0253,0.0244,0.0178,0.0189,0.0185,0.0182,0.018,0.0047,0.0046,0,0,0,0,0,0,0.0304,0.031,0.0351,0.0353,0.0321,0.0341,0.0344,0.0354,0.0305,0.0298,0.0356,0.0355,0.0262,0.025,0.0239,0.0194,0.0184,0.0179,0.0177,0.0048,0.0047,0.0046,0,0,0,0,0,0,0.0303,0.0308,0.035,0.0331,0.0336,0.0343,0.0355,0.0355,0.0337,0.031,0.0299,0.0334,0.0261,0.0246,0.0202,0.0189,0.0177,0.0173,0.0048,0.0047,0.0047,0.0121,0,0,0,0,0,0,0.0301,0.0308,0.03,0.0331,0.0337,0.0346,0.0356,0.0357,0.0342,0.034,0.0287,0.0275,0.0259,0.021,0.0198,0.0182,0.0169,0.0049,0.0048,0.0047,0.0119,0.0123,0.0126,0,0,0,0,0,0.0299,0.0297,0.03,0.0304,0.0332,0.0345,0.0348,0.035,0.0341,0.033,0.0313,0.0275,0.0193,0.0207,0.0192,0.0174,0.0049,0.0048,0.0047,0.0118,0.0122,0.0126,0,0,0,0,0,0,0.0265,0.0297,0.0301,0.0306,0.0314,0.0343,0.0322,0.0334,0.0316,0.0295,0.0277,0.0264,0.0223,0.0182,0.0197,0.013,0.011,0.0106,0.0169,0.0172,0.0175,0.0187,0.0165,0,0,0,0,0,0.0257,0.0264,0.0289,0.0289,0.0281,0.0296,0.0296,0.03,0.0297,0.0287,0.0269,0.0232,0.0211,0.0179,0.015,0.0108,0.0078,0.0081,0.0085,0.0088,0.0086,0.0043,0.0043,0.0042,0.0042,0.0042,0,0,0.0242,0.0261,0.0262,0.0282,0.0277,0.0289,0.0291,0.0276,0.0297,0.0269,0.0266,0.0241,0.0204,0.018,0.0153,0.0138,0.0074,0.0086,0.009,0.0085,0.0042,0.0043,0.0043,0.0041,0.0041,0.0041,0,0,0.023,0.0224,0.0226,0.0231,0.0229,0.0249,0.0239,0.0254,0.0258,0.0259,0.0253,0.0226,0.0182,0.0175,0.0161,0.0152,0.01,0.0123,0.0141,0.0101,0.0101,0.0101,0.008,0.0077,0.0116,0.0117,0.0117,0,0.0207,0.0228,0.0225,0.023,0.0239,0.0231,0.0242,0.0251,0.0263,0.0273,0.0252,0.0228,0.0187,0.0184,0.0187,0.016,0.0133,0.0138,0.0108,0.0106,0.0105,0.0083,0.008,0.012,0.012,0.0119,0.0119,0,0.0204,0.0216,0.0204,0.0226,0.0235,0.0228,0.0251,0.0256,0.0258,0.0281,0.0271,0.0241,0.0226,0.0206,0.0193,0.0167,0.0152,0.0128,0.0106,0.011,0.0087,0.0081,0.0125,0.0124,0.0123,0.0122,0,0,0.0169,0.0202,0.0196,0.0222,0.023,0.0248,0.0267,0.0303,0.033,0.0312,0.035,0.0303,0.0281,0.0261,0.0235,0.0196,0.0167,0.0155,0.0151,0.015,0.0089,0.0096,0.009,0.0137,0.0136,0.0135,0.0084,0,0.0164,0.0196,0.0216,0.0252,0.0267,0.0282,0.032,0.0348,0.0362,0.0395,0.0356,0.0364,0.0304,0.0297,0.0248,0.0204,0.0153,0.0184,0.007,0.0067,0.0086,0.0084,0.0047,-0.0002,0.0078,0.0077,0.0077,0,0.0152,0.0186,0.0221,0.0297,0.0301,0.0328,0.0389,0.042,0.0453,0.0464,0.0449,0.0432,0.0396,0.0334,0.023,0.0253,0.0163,0.0112,0.0108,0.0082,0.0063,0.0,-0.0015,0.0067,0.0068,0.0069,0.0069,0,0.0145,0.0194,0.0235,0.0249,0.0322,0.0349,0.0384,0.0429,0.0472,0.0499,0.0535,0.0483,0.0472,0.0355,0.0255,0.0231,0.0147,0.01,0.0018,0.0019,-0.0053,-0.0057,-0.0008,-0.0007,-0.0007,-0.0007,-0.0007,0,0.0147,0.0177,0.0234,0.0255,0.0318,0.0354,0.0417,0.0454,0.051,0.0577,0.0554,0.0606,0.047,0.0422,0.029,0.0163,0.0164,0.0023,0.0002,-0.0026,-0.0027,-0.0006,-0.0005,-0.0009,-0.0009,-0.0008,-0.0008,0,0.014,0.0168,0.0227,0.0297,0.0318,0.0357,0.0441,0.0502,0.0543,0.0633,0.0647,0.0686,0.0629,0.0504,0.0349,0.0224,0.0095,0.0037,0.0032,0.0011,-0.0023,-0.0018,-0.0075,-0.0075,-0.0075,-0.0075,-0.0076,0,0.0151,0.0175,0.0244,0.0287,0.0318,0.0378,0.0437,0.0501,0.0577,0.0699,0.0762,0.0754,0.0796,0.0606,0.0353,0.0132,0.0114,-0.0035,-0.0105,-0.0017,-0.0032,-0.0026,-0.0021,-0.0169,-0.017,-0.0171,-0.0171,0,0.0181,0.0189,0.0235,0.0313,0.0377,0.0464,0.0549,0.0618,0.0719,0.0828,0.098,0.1027,0.0838,0.0622,0.0319,0.0165,-0.0,-0.0058,0.0026,-0.0132,-0.0107,-0.012,-0.0113,-0.0178,-0.0177,-0.0177,-0.0177,-0.0176,0.02,0.0225,0.0279,0.0357,0.0441,0.0563,0.065,0.0771,0.0924,0.1089,0.113,0.1166,0.0811,0.0408,0.0191,-0.0042,-0.0054,-0.0171,-0.0169,-0.0166,-0.0154,-0.0129,-0.0201,-0.0201,-0.02,-0.02,-0.02,0,0.024,0.0261,0.0333,0.0436,0.0549,0.0581,0.0751,0.0863,0.1067,0.1149,0.1283,0.0966,0.0714,0.0395,0.0016,-0.0206,-0.0225,-0.024,-0.0252,-0.0246,-0.024,-0.0231,-0.03,-0.03,-0.03,-0.03,0,0,0.0267,0.0323,0.0353,0.052,0.0598,0.076,0.087,0.1037,0.1128,0.1249,0.1213,0.1091,0.0675,0.0342,0.0041,-0.01,-0.0101,-0.0119,-0.0031,-0.0006,0.0004,-0.0209,-0.019,0,0,0,0,0]}],[{"header":{"parameterUnit":"m.s-1","parameterCategory":2,"la1":30.2991,"la2":30.254,"lo1":-89.0895,"lo2":-89.0444,"dy":0.0017,"dx":0.0017,"nx":28,"ny":28,"refTime":"2025-07-15T21:00:00:Z","depth":"4","parameterNumber":2,"parameterNumberName":"U-component_of_CURRENTS"},"data":[0,0,0,0,0,0,0,0,0,0,0,0,0,0,0,0,0,0,0,0,0,0,0,0,0,0,0,0,0,0,0,0,0,0,0,0,0,0,0,0,0,0,0,0,0,0,0,0,0,0,0,0,0,0,0,0,0,0,0.0001,0.0002,0,0.0033,0.0033,0.0033,0.0043,0.0043,0.0043,0.0043,-0.0005,-0.0007,-0.0008,0,0,0,0,0,0,0,0,0,0,0,0,0,-0.008,-0.0078,0.0001,0.0002,0.0003,0.0033,0.0033,0.0034,0.0043,0.0043,0.0043,0.0043,-0.0005,-0.0007,-0.0008,0,0,0,0,0,0,0,0,0,0,0,0,0,-0.0049,-0.0078,0.0001,0.0014,0.0016,0.0033,0.0033,0.0034,0.0043,0.0043,0.0043,0.0043,-0.0004,-0.0006,-0.0009,-0.0028,0,0,-0.0015,-0.0016,0,0,0,0,0,0,0,0,-0.0051,-0.0047,0.0011,0.0013,0.0015,0.0038,-0.0012,0.001,0.0043,0.0028,0.0043,0.0044,0.0004,0.0001,0.0002,-0.003,-0.0032,-0.0015,-0.0017,-0.0018,-0.0018,0,0,0,0,0,0,0,-0.0053,-0.0048,0.001,0.0012,0.0014,0.0009,0.0013,-0.0008,0.0009,0.0029,0.0031,0.0041,0.0004,0.0004,0.0001,-0.0033,-0.0015,-0.0017,-0.0019,-0.002,-0.0086,-0.0086,0,0,0,0,0,0,-0.0048,-0.005,0.0009,0.0011,-0.0014,0.0011,0.0015,0.0027,0.0012,0.0011,0.0041,0.0041,0.0008,0.0003,-0.0001,-0.0013,-0.0018,-0.002,-0.0021,-0.0085,-0.0086,-0.0086,0,0,0,0,0,0,-0.005,-0.0043,0.0008,-0.0016,-0.0009,0.0012,0.0025,0.0028,0.0043,0.0022,0.0019,0.0055,0.0008,0.0002,-0.0013,-0.0016,-0.0021,-0.0023,-0.0085,-0.0086,-0.0086,-0.0046,0,0,0,0,0,0,-0.0052,-0.0044,-0.0033,-0.0015,-0.0008,0.0028,0.0025,0.0028,0.0049,0.0051,0.0033,0.0028,0.0008,-0.001,-0.0015,-0.0019,-0.0024,-0.0084,-0.0085,-0.0086,-0.0047,-0.0045,-0.0044,0,0,0,0,0,-0.0055,-0.0043,-0.0033,-0.0025,0.0007,0.0029,0.0032,0.0045,0.005,0.0058,0.0043,0.0029,-0.0019,-0.0012,-0.0018,-0.0022,-0.0084,-0.0085,-0.0086,-0.0047,-0.0045,-0.0044,0,0,0,0,0,0,-0.0075,-0.004,-0.0028,-0.0006,0.0016,0.0032,0.0044,0.0054,0.0051,0.0051,0.0028,0.0022,0.0005,-0.0015,-0.0006,-0.0046,-0.0056,-0.0058,-0.0025,-0.0023,-0.0022,-0.0,-0.0026,0,0,0,0,0,-0.0072,-0.0052,-0.0022,-0.0004,0.001,0.003,0.0042,0.0054,0.0055,0.0056,0.0046,0.0023,-0.0007,-0.0018,-0.0043,-0.006,-0.0069,-0.007,-0.0068,-0.0067,-0.0056,-0.0085,-0.0085,-0.009,-0.009,-0.009,0,0,-0.0076,-0.0052,-0.0042,-0.0006,0.0011,0.0036,0.0037,0.0062,0.0077,0.0048,0.0059,0.003,-0.0011,-0.0031,-0.0041,-0.0046,-0.0067,-0.0068,-0.0066,-0.0056,-0.0086,-0.0086,-0.0085,-0.009,-0.009,-0.009,0,0,-0.0075,-0.0049,-0.0032,-0.0007,0.003,0.0045,0.0058,0.0084,0.009,0.0095,0.0069,0.0044,0.0016,-0.0017,-0.004,-0.0046,-0.0059,-0.0057,-0.0031,-0.006,-0.0059,-0.0059,-0.005,-0.0049,-0.0056,-0.0056,-0.0056,0,-0.008,-0.0045,-0.0025,0.0004,0.0032,0.0053,0.0084,0.0089,0.0105,0.0107,0.0103,0.0053,0.002,-0.0019,-0.0021,-0.0042,-0.0045,-0.0031,-0.0056,-0.0056,-0.0057,-0.0048,-0.0047,-0.0054,-0.0054,-0.0055,-0.0055,0,-0.0064,-0.0028,-0.0013,0.0033,0.006,0.0092,0.0114,0.0131,0.0142,0.0144,0.0123,0.0078,0.0053,0.0026,0.0003,-0.0022,-0.0018,-0.0049,-0.0055,-0.0053,-0.0044,-0.0044,-0.0052,-0.0052,-0.0053,-0.0053,0,0,-0.0091,-0.0015,-0.0008,0.0033,0.0086,0.0113,0.0135,0.0162,0.0178,0.0168,0.0175,0.0115,0.0102,0.0075,0.0035,0.0003,0.0,-0.0014,-0.0017,0.0007,-0.003,0.0012,0.0016,-0.0034,-0.0034,-0.0034,-0.0015,0,-0.0078,-0.0014,0.0018,0.0085,0.0127,0.016,0.0183,0.0204,0.0209,0.0216,0.0165,0.0156,0.0116,0.0109,0.0069,0.0012,-0.0001,0.0,-0.0045,-0.0046,0.0001,0.0016,-0.0035,-0.0015,-0.0015,-0.0015,-0.0015,0,-0.0072,-0.0019,0.0051,0.0135,0.0155,0.0198,0.0253,0.0275,0.0274,0.0275,0.0252,0.0223,0.0181,0.0146,0.007,0.0076,0.004,-0.0005,-0.0007,0.002,-0.0004,-0.0025,-0.0016,-0.0016,-0.0016,-0.0016,-0.0016,0,-0.0088,0.0002,0.0068,0.01,0.0189,0.023,0.0274,0.0297,0.032,0.0324,0.0335,0.0278,0.0263,0.0192,0.0107,0.0098,0.0022,-0.0005,0.0003,0.0007,-0.0055,-0.0056,-0.0044,-0.0044,-0.0044,-0.0044,-0.0045,0,-0.008,-0.0031,0.0079,0.0118,0.0203,0.0256,0.0323,0.0349,0.038,0.0387,0.0376,0.0335,0.0274,0.0214,0.0133,0.0075,0.0047,0.0026,0.0013,-0.0036,-0.0035,-0.0053,-0.0055,-0.0044,-0.0044,-0.0044,-0.0044,0,-0.0112,-0.0042,0.0042,0.0158,0.0202,0.0265,0.0373,0.0402,0.0442,0.0451,0.046,0.0405,0.033,0.0272,0.0158,0.0131,0.0051,0.0036,0.0022,0.0004,0.006,0.006,0.0078,0.008,0.0081,0.0082,0.0083,0,-0.0113,-0.0074,0.0063,0.0128,0.0194,0.0296,0.0352,0.0425,0.0442,0.0444,0.0423,0.0396,0.0343,0.0242,0.0155,0.0089,0.0062,0.0077,0.0051,0.0086,0.0071,0.0069,0.0068,0.0085,0.0086,0.0086,0.0086,0,-0.0126,-0.0083,-0.0018,0.0113,0.0209,0.0295,0.0375,0.0386,0.0432,0.048,0.0415,0.0381,0.0313,0.0221,0.0215,0.0122,0.0098,0.0091,0.0088,0.0063,0.0095,0.0078,0.0075,0.0091,0.0091,0.009,0.009,0,-0.0141,-0.0109,-0.0023,0.0095,0.0205,0.0265,0.031,0.0346,0.0385,0.0409,0.0348,0.0294,0.0278,0.0232,0.0155,0.0158,0.015,0.0162,0.0154,0.0149,0.0158,0.0209,0.0243,0,0,0,0,0,-0.0146,-0.0126,-0.0041,0.0085,0.0186,0.0245,0.031,0.0338,0.0371,0.0349,0.0377,0.0304,0.0261,0.0188,0.02,0.015,0.0126,0.0164,0.0131,0.0118,0.0112,0.0115,0,0,0,0,0,0,-0.015,-0.0105,-0.0067,0.0052,0.0126,0.0223,0.0251,0.0268,0.026,0.0293,0.0249,0.0325,0.0248,0.0259,0.0199,0.0195,0.0182,0.016,0.0161,0.0121,0.0116,0.0111,0.0112,0,0,0,0,0]},{"header":{"parameterUnit":"m.s-1","parameterCategory":2,"la1":30.2991,"la2":30.254,"lo1":-89.0895,"lo2":-89.0444,"dy":0.0017,"dx":0.0017,"nx":28,"ny":28,"refTime":"2025-07-15T21:00:00:Z","depth":"4","parameterNumber":3,"parameterNumberName":"V-component_of_CURRENTS"},"data":[0,0,0,0,0,0,0,0,0,0,0,0,0,0,0,0,0,0,0,0,0,0,0,0,0,0,0,0,0,0,0,0,0,0,0,0,0,0,0,0,0,0,0,0,0,0,0,0,0,0,0,0,0,0,0,0,0,0,0.0227,0.0227,0,0.0186,0.0186,0.0185,0.0147,0.0147,0.0147,0.0146,0.0053,0.0051,0.0049,0,0,0,0,0,0,0,0,0,0,0,0,0,0.0269,0.0268,0.0227,0.0227,0.0226,0.0186,0.0186,0.0185,0.0147,0.0147,0.0146,0.0146,0.0054,0.0051,0.0049,0,0,0,0,0,0,0,0,0,0,0,0,0,0.0241,0.0268,0.0227,0.0203,0.0201,0.0186,0.0186,0.0185,0.0147,0.0147,0.0146,0.0146,0.0055,0.0052,0.0048,0.004,0,0,0.0039,0.0037,0,0,0,0,0,0,0,0,0.0242,0.0239,0.0207,0.0205,0.0202,0.0172,0.0166,0.0134,0.0148,0.0167,0.0146,0.0145,0.0089,0.0083,0.0076,0.0036,0.0032,0.0038,0.0036,0.0035,0.0034,0,0,0,0,0,0,0,0.0244,0.0241,0.021,0.0207,0.0204,0.0193,0.0189,0.016,0.013,0.0165,0.0162,0.016,0.0087,0.0079,0.0073,0.003,0.0038,0.0036,0.0034,0.0032,-0.0089,-0.009,0,0,0,0,0,0,0.0252,0.0243,0.0211,0.0209,0.0222,0.0193,0.0188,0.0182,0.0131,0.0124,0.016,0.0158,0.0085,0.0077,0.007,-0.0002,0.0035,0.0032,0.003,-0.0087,-0.0089,-0.009,0,0,0,0,0,0,0.0253,0.025,0.0213,0.0226,0.022,0.0193,0.0186,0.0181,0.0155,0.0128,0.0119,0.0137,0.0084,0.0074,0.0023,-0.0004,0.0031,0.0028,-0.0086,-0.0088,-0.009,-0.0108,0,0,0,0,0,0,0.0254,0.025,0.0241,0.0226,0.022,0.0191,0.0187,0.0181,0.0156,0.0152,0.0106,0.0098,0.0083,0.0028,0.002,-0.0007,0.0025,-0.0084,-0.0087,-0.0089,-0.0106,-0.0111,-0.0114,0,0,0,0,0,0.0256,0.0246,0.0241,0.0237,0.0211,0.0191,0.0186,0.0165,0.0155,0.0139,0.0104,0.0098,0.0006,0.0024,0.0015,-0.0014,-0.0083,-0.0086,-0.0089,-0.0104,-0.011,-0.0114,0,0,0,0,0,0,0.0257,0.0241,0.0235,0.022,0.0202,0.0184,0.0169,0.0155,0.0117,0.0107,0.0082,0.0071,0.0014,0.0003,0.0023,-0.0057,-0.004,-0.0044,-0.0048,-0.0053,-0.0058,-0.0053,0.0023,0,0,0,0,0,0.0256,0.0244,0.0228,0.0214,0.0205,0.0184,0.0171,0.0155,0.0126,0.0108,0.0075,0.0037,-0.0002,-0.0025,-0.006,-0.0101,-0.0103,-0.0126,-0.013,-0.0133,-0.0137,-0.0162,-0.0169,-0.01,-0.01,-0.01,0,0,0.0254,0.0243,0.0236,0.0213,0.0198,0.0177,0.0174,0.0148,0.012,0.0104,0.0047,0.0018,-0.0017,-0.0067,-0.0093,-0.0082,-0.0154,-0.0137,-0.014,-0.0141,-0.0166,-0.0172,-0.0178,-0.0102,-0.0102,-0.0101,0,0,0.0251,0.0233,0.0225,0.0205,0.0179,0.0163,0.0151,0.0121,0.0095,0.0047,0.0023,-0.0024,-0.0078,-0.011,-0.0131,-0.018,-0.0178,-0.0193,-0.021,-0.0235,-0.024,-0.0245,-0.025,-0.0255,-0.0192,-0.0192,-0.0192,0,0.0249,0.0234,0.0218,0.02,0.0179,0.0154,0.0131,0.0103,0.0055,0.0027,0.0023,-0.0071,-0.0099,-0.0162,-0.0178,-0.0191,-0.0194,-0.0185,-0.0239,-0.0244,-0.0248,-0.0252,-0.0257,-0.0193,-0.0193,-0.0193,-0.0193,0,0.0241,0.0221,0.0211,0.0179,0.0152,0.0127,0.0089,0.0052,0.0019,-0.001,-0.0082,-0.012,-0.017,-0.0192,-0.02,-0.0254,-0.0242,-0.0241,-0.0221,-0.0256,-0.0258,-0.0263,-0.0195,-0.0195,-0.0194,-0.0194,0,0,0.0253,0.0216,0.021,0.0187,0.0136,0.0112,0.006,0.0008,-0.003,-0.0082,-0.0134,-0.0199,-0.0214,-0.0239,-0.0259,-0.0285,-0.0318,-0.0275,-0.0276,-0.0271,-0.0358,-0.0333,-0.0335,-0.0323,-0.0324,-0.0325,-0.0343,0,0.0249,0.0226,0.0197,0.015,0.0127,0.0077,0.0031,-0.0025,-0.0071,-0.0128,-0.0178,-0.0226,-0.0233,-0.0252,-0.0285,-0.0319,-0.0334,-0.0312,-0.0333,-0.0333,-0.0299,-0.0342,-0.0329,-0.0347,-0.0348,-0.0349,-0.035,0,0.0246,0.0227,0.0199,0.0131,0.0115,0.0084,0.0001,-0.0041,-0.0121,-0.0156,-0.0211,-0.0246,-0.0305,-0.0293,-0.0361,-0.0346,-0.0349,-0.0366,-0.0367,-0.0341,-0.0318,-0.0308,-0.0359,-0.0358,-0.0357,-0.0357,-0.0356,0,0.0266,0.0217,0.0197,0.0176,0.0105,0.0075,0.0034,-0.0045,-0.0081,-0.0158,-0.0188,-0.0268,-0.0299,-0.0337,-0.0369,-0.0365,-0.043,-0.0426,-0.0404,-0.0401,-0.0407,-0.0402,-0.0456,-0.0456,-0.0456,-0.0456,-0.0456,0,0.026,0.0238,0.0211,0.0197,0.0155,0.0098,0.005,-0.0005,-0.0071,-0.0118,-0.0184,-0.0233,-0.031,-0.0357,-0.038,-0.0411,-0.0434,-0.0416,-0.0412,-0.0414,-0.0409,-0.041,-0.0405,-0.0456,-0.0456,-0.0456,-0.0456,0,0.0266,0.0257,0.0232,0.0183,0.017,0.0141,0.0082,0.0044,-0.0015,-0.0075,-0.0093,-0.0205,-0.0273,-0.0332,-0.0399,-0.0415,-0.0449,-0.044,-0.0429,-0.0423,-0.0399,-0.0395,-0.0436,-0.0435,-0.0435,-0.0434,-0.0434,0,0.0256,0.0256,0.0243,0.0237,0.0216,0.018,0.0152,0.0086,0.0047,-0.006,-0.0092,-0.0174,-0.0243,-0.0329,-0.0388,-0.0431,-0.0423,-0.0436,-0.0433,-0.0409,-0.0401,-0.0398,-0.0394,-0.0433,-0.0433,-0.0433,-0.0433,0,0.0232,0.0253,0.0237,0.0254,0.0238,0.0202,0.0161,0.0131,0.0044,0.0017,-0.0091,-0.0163,-0.0242,-0.0327,-0.035,-0.0382,-0.044,-0.0431,-0.0432,-0.043,-0.0406,-0.0398,-0.0395,-0.0431,-0.0431,-0.0431,-0.0432,0,0.0215,0.0216,0.0237,0.0244,0.0252,0.0213,0.017,0.0109,0.0064,-0.0043,-0.0072,-0.0175,-0.0232,-0.03,-0.0332,-0.0358,-0.0363,-0.037,-0.0374,-0.0376,-0.0354,-0.0315,-0.0318,0,0,0,0,0,0.0193,0.0211,0.022,0.0214,0.0237,0.0249,0.0177,0.0124,0.0061,0.0,-0.0038,-0.0108,-0.02,-0.0263,-0.0281,-0.032,-0.0366,-0.0343,-0.0374,-0.0422,-0.0424,-0.0406,0,0,0,0,0,0,0.017,0.0191,0.0216,0.0227,0.0242,0.0228,0.0195,0.012,0.0072,0.0015,-0.0038,-0.0062,-0.0153,-0.0147,-0.0251,-0.0267,-0.0286,-0.0381,-0.0381,-0.0421,-0.0422,-0.0424,-0.0406,0,0,0,0,0]}]]